Zurück zum Katalog

STARLINK-3946

AktivKommunikationVLEO
NORAD 52693·PAYLOAD·🇺🇸 United States

Gestartet May 18, 2022 von Cape Canaveral Space Force Station

Loading…

Nächste Überflüge (nächste 24 Stunden)

TLE

AktuellSource: CelesTrak SupGP

Epoche: Sep 15, 2026, 02:36 UTC

1 52693C 22053AP  26258.10881944  .00209750  00000+0  84650-2 0  2580
2 52693  53.1601  12.0146 0001203  88.5589 278.5097 15.24158739    10

Verfolge STARLINK-3946 in Echtzeit mit AllMySat

Download on the App Store